SL-16 DEB, 22611

Orbit data source: Space-Track

SL-16 DEB, 22611 is space debris in LEO originally from a launch on Fri, 26 Mar 1993 UTC launched from the Tyuratam Missile And Space Complex (TTMTR). Debris objects in space refer to the collection of defunct objects orbiting the Earth. Examples of debris include non-operational satellites, rocket bodies, and fragments generated from explosions, collisions, or faulty payload assembly.

Loading next visibility...
Identifier
22611, 1993-016V
Orbit
LEO
Country
Flag of CISCIS
Related business
Manufacturer
Unknown
Mission
Spacecraft
Bus & Motor
Unknown
Mass
Unknown
Launch date (UTC)
1993-03-26 (33 years ago)
Launch vehicle
Unknown
Launch site
Tyuratam Missile And Space Complex (TTMTR)
Object type
Payload
Rocket body
Debris
Shape & HBR
Unknown shape, 0.2 m
Radar Cross Section
Small (<0.1 m²)

Expand to show TLE details & history
Last TLE update: 9 hours ago

TLE from 9 hours ago
0 SL-16 DEB
1 22611U 93016V   26035.32152514  .00000163  00000-0  18250-3 0  9999
2 22611  70.9917   7.2739 0172696 261.8120 253.0339 13.78709390651123
Epoch: 2026-02-04T07:42Z
TLE epoch observation values (Epoch: 2026-02-04T07:42:59.772Z)
Latitude
25.49091°
Longitude
-72.36904°
Altitude
1,010.027 km
Speed
7.33 km/s
True Right ascension
11h 51m 28s
True Declination
25° 21' 44"
Sunlit
Object was in full shadow at epoch
Visualization orbit readout
Latitude
Unknown
Longitude
Unknown
Altitude
Unknown
Speed
Unknown
Apparent Right ascension
Unknown
Apparent Declination
Unknown
Sunlit
N/A
Visualization observer readout
Local Sidereal Time
18:44:29
Azimuth
Unknown
Elevation
Unknown
Doppler factor
Unknown
Orbital elements
Apogee altitude
1,093.266 km
Perigee altitude
839.591 km
Semi-major axis
7,344.565 km
Eccentricity
0.01727
Inclination
70.9917°
RAAN
7.2739°
Arg. of periapsis
261.812°
True anomaly
251.15327°
Mean anomaly
253.0339°
Eccentric anomaly
252.09236°
Mean motion
3.44821 °/min
Orbital period
104.4 mins
BSTAR
0.0001825
Loading maneuver chart data...
Computing Atmospheric mass density...
Loading historical data...
Loading historical data...
Loading historical data...
Loading historical data...
Loading historical data...
Loading historical data...
Loading historical data...

Documentation

Showing up to 5 results
|